Weather History for Toledo, OH

Change the Weather History Date:

Wednesday, March 6, 2013

  Actual Average Record
Temperature  
Mean Temperature 34 °F 34 °F  
Max Temperature 41 °F 43 °F 73 °F (1973)
Min Temperature 26 °F 25 °F 2 °F (1901)
Degree Days  
Heating Degree Days 31 31  
Month to date heating degree days 223 193  
Since 1 July heating degree days 4679 4769  
Cooling Degree Days 0 0  
Month to date cooling degree days 0 0  
Year to date cooling degree days 0 0  
Moisture  
Dew Point 24 °F    
Average Humidity 68    
Maximum Humidity 81    
Minimum Humidity 55    
Precipitation  
Precipitation 0.00 in 0.07 in 1.21 in (1956)
Month to date precipitation T 0.45  
Year to date precipitation 6.44 4.57  
Snow  
Snow 0.00 in 0.20 in - ()
Month to date snowfall T 1.4  
Since 1 July snowfall 22.5 31.9  
Snow Depth 0.00 in    
Sea Level Pressure  
Sea Level Pressure 30.04 in    
Wind  
Wind Speed 9 mph (North)    
Max Wind Speed 21 mph    
Max Gust Speed 26 mph    
Visibility 10 miles    
Events      
T = Trace of Precipitation, MM = Missing Value Source: NWS Daily Summary

Daily Weather History Graph

Daily Weather History Graph

Search for Another Location

Airport:

Trip Planner

Search our weather history database for the weather conditions in past years. The results will help you decide how hot, cold, wet, or windy it might be!

Date:

Astronomy

Mar. 06, 2013 Rise Set
Actual Time 7:01 AM EST 6:31 PM EST
Civil Twilight 6:33 AM EST 6:59 PM EST
Nautical Twilight 6:01 AM EST 7:31 PM EST
Astronomical Twilight 5:29 AM EST 8:04 PM EST
Moon 3:13 AM EST (3/6) 1:09 PM EST (3/6)
Length of Visible Light 12h 25m
Length of Day
11h 30m
Waning Crescent, 30% of the Moon is Illuminated
Mar 6
Waning Crescent
Mar 11
New
Mar 19
First Quarter
Mar 27
Full
Apr 3
Last Quarter

Hourly Weather History & Observations

Time (EST) Temp. Windchill Dew Point Humidity Pressure Visibility Wind Dir Wind Speed Gust Speed Precip Events Conditions
12:11 AM 30.2 °F 19.8 °F 21.2 °F 69% 29.77 in 10.0 mi NNE 13.8 mph 23.0 mph N/A   Overcast
12:52 AM 28.9 °F 16.9 °F 21.9 °F 75% 29.79 in 10.0 mi NNE 17.3 mph - N/A   Mostly Cloudy
1:06 AM 28.4 °F 16.2 °F 21.2 °F 74% 29.77 in 10.0 mi NNE 17.3 mph 25.3 mph N/A   Mostly Cloudy
1:52 AM 28.9 °F 17.7 °F 21.0 °F 72% 29.81 in 10.0 mi NNE 15.0 mph 23.0 mph N/A   Mostly Cloudy
2:52 AM 28.0 °F 17.0 °F 21.0 °F 75% 29.83 in 10.0 mi NNE 13.8 mph - N/A   Mostly Cloudy
3:52 AM 27.0 °F 15.2 °F 21.0 °F 78% 29.84 in 10.0 mi NNE 15.0 mph - N/A   Mostly Cloudy
4:03 AM 26.6 °F 15.2 °F 21.2 °F 80% 29.82 in 10.0 mi NNE 13.8 mph 21.9 mph N/A   Scattered Clouds
4:52 AM 27.0 °F 17.3 °F 21.9 °F 81% 29.88 in 10.0 mi North 10.4 mph - N/A   Partly Cloudy
5:52 AM 26.1 °F 16.2 °F 21.9 °F 84% 29.92 in 10.0 mi North 10.4 mph - N/A   Clear
6:52 AM 26.1 °F 16.2 °F 21.9 °F 84% 29.96 in 10.0 mi North 10.4 mph - N/A   Clear
7:52 AM 27.0 °F 18.0 °F 21.9 °F 81% 30.01 in 10.0 mi North 9.2 mph - N/A   Clear
8:52 AM 30.0 °F 21.1 °F 24.1 °F 79% 30.04 in 10.0 mi North 10.4 mph - N/A   Clear
9:27 AM 32.0 °F 24.2 °F 24.8 °F 75% 30.03 in 10.0 mi NNE 9.2 mph 17.3 mph N/A   Mostly Cloudy
9:52 AM 33.1 °F 25.5 °F 24.1 °F 70% 30.07 in 10.0 mi North 9.2 mph - N/A   Overcast
10:52 AM 36.0 °F 30.3 °F 25.0 °F 64% 30.09 in 10.0 mi ENE 6.9 mph - N/A   Overcast
11:49 AM 39.2 °F 33.6 °F 26.6 °F 61% 30.07 in 10.0 mi ENE 8.1 mph - N/A   Mostly Cloudy
11:52 AM 39.2 °F 33.0 °F 26.6 °F 61% 30.08 in 10.0 mi East 9.2 mph - N/A   Mostly Cloudy
12:18 PM 37.4 °F 32.1 °F 24.8 °F 60% 30.08 in 10.0 mi NE 6.9 mph - N/A   Mostly Cloudy
12:30 PM 37.4 °F 31.4 °F 24.8 °F 60% 30.08 in 10.0 mi ENE 8.1 mph - N/A   Scattered Clouds
12:52 PM 41.0 °F 35.2 °F 26.1 °F 55% 30.11 in 10.0 mi NNE 9.2 mph - N/A   Scattered Clouds
1:52 PM 37.9 °F 31.5 °F 26.1 °F 62% 30.12 in 10.0 mi NNW 9.2 mph - N/A   Overcast
2:11 PM 37.4 °F 31.4 °F 26.6 °F 65% 30.10 in 10.0 mi North 8.1 mph - N/A   Overcast
2:52 PM 37.0 °F 32.4 °F 27.0 °F 67% 30.14 in 10.0 mi NNE 5.8 mph - N/A   Overcast
3:52 PM 37.9 °F 33.5 °F 27.0 °F 65% 30.14 in 10.0 mi NW 5.8 mph - N/A   Overcast
4:19 PM 37.4 °F 32.1 °F 26.6 °F 65% 30.12 in 10.0 mi WNW 6.9 mph - N/A   Overcast
4:52 PM 37.9 °F 33.5 °F 26.1 °F 62% 30.16 in 10.0 mi NW 5.8 mph - N/A   Overcast
5:14 PM 37.4 °F 30.8 °F 26.6 °F 65% 30.14 in 10.0 mi NW 9.2 mph - N/A   Overcast
5:52 PM 36.0 °F 29.0 °F 26.1 °F 67% 30.18 in 10.0 mi WNW 9.2 mph - N/A   Overcast
6:49 PM 35.6 °F 29.9 °F 26.6 °F 70% 30.17 in 10.0 mi West 6.9 mph - N/A   Overcast
6:52 PM 35.1 °F 29.3 °F 26.1 °F 70% 30.19 in 10.0 mi WNW 6.9 mph - N/A   Overcast
7:52 PM 34.0 °F 28.0 °F 26.1 °F 73% 30.21 in 10.0 mi WNW 6.9 mph - N/A   Overcast
8:52 PM 34.0 °F 28.8 °F 26.1 °F 73% 30.22 in 10.0 mi WNW 5.8 mph - N/A   Overcast
9:52 PM 33.1 °F 27.7 °F 26.1 °F 75% 30.22 in 10.0 mi West 5.8 mph - N/A   Overcast
10:52 PM 33.1 °F 28.7 °F 26.1 °F 75% 30.23 in 9.0 mi West 4.6 mph - N/A   Overcast
11:52 PM 33.1 °F 27.7 °F 26.1 °F 75% 30.22 in 9.0 mi West 5.8 mph - N/A   Overcast